Location: Mesa
(33.4220°N, 111.8220°W)
Time: 15:34:03
(UTC-07:00)

ISS - Visible Passes

Search period start: 22 November 2019 00:00
Search period end: 02 December 2019 00:00
Orbit: 412 x 421 km, 51.6° (Epoch: 23 November)

Date Brightness Start Highest point End Pass type
(mag) Time Alt. Az. Time Alt. Az. Time Alt. Az.
22 Nov -3.5 18:08:19 10° SW 18:11:37 66° NW 18:14:30 13° NE visible
23 Nov -1.3 18:58:19 10° WNW 19:00:14 14° NNW 19:01:07 13° NNW visible
24 Nov -1.7 18:08:56 10° W 18:11:37 22° NW 18:14:19 10° NNE visible
26 Nov -0.9 18:11:25 10° NNW 18:11:48 10° NNW 18:12:12 10° NNW visible
